Powrót do katalogu

COSMOS 1275 DEB

AktywnyPO
NORAD 13817·DEBRIS·🇷🇺 Russia

Wystrzelony Jun 4, 1981 z Plesetsk Cosmodrome

Loading…

Następne Przeloty (najbliższe 24 godziny)

TLE

ŚwieżeSource: Space-Track

Epoka: Sep 14, 2026, 19:54 UTC

1 13817U 81053HM  26257.82937492  .00001224  00000-0  70793-3 0  9991
2 13817  82.9410 207.0770 0023154  89.4225 270.9603 14.08074349268580

Śledź COSMOS 1275 DEB w czasie rzeczywistym z AllMySat

Download on the App Store